Location: Augirein
(42.9320°N, 0.9181°E)
Time: 19:54:13
(UTC+00:00)

CZ-4B R/B - Pass Details

Date: 20 June 2021
Orbit: 702 x 803 km, 98.9° (Epoch: 31 July)

Event Time Altitude Azimuth Distance (km) Brightness Sun altitude
Rises 02:52:44 0° 18° (NNE) 3,323 8.2 -12.4°
Reaches altitude 10° 02:55:08 10° 22° (NNE) 2,385 7.3 -12.1°
Maximum altitude 03:00:20 57° 101° (E) 932 4.1 -11.5°
Drops below altitude 10° 03:05:24 10° 180° (S) 2,329 5.6 -10.9°
Enters shadow 03:06:23 - 182° (S) 2,713 5.9 -10.7°
